Find Starlink 11209

NORAD ID: 61200 Int'l Des: 2024-171 Owner: SPXS Country: US Constellation: starlink operational
LEOCIRCULAR

現在のビュー

3D地球を読み込み中...

About Starlink 11209

Starlink 11209 (NORAD 61200) is a starlink constellation satellite (v2 mini d2c) launched Sep 20, 2024 by SPXS of US. It operates in LEO, CIRCULAR orbit with a mass of 960.00 kg.

Starlink 11209について

説明を読み込み中...

次回通過

Passes for default location (London). Set your location on the main map for personalized predictions.

高度履歴

Loading altitude history...

軌道要素

1 61200U 24171A 26169.90798463 .00000094 00000-0 56327-5 0 9995
2 61200 53.1600 37.4910 0001073 68.4524 291.6609 15.69704453101201
Epoch: Jun 18, 2026 • Age: 18 hours

現在のステータス

高度 361.6 km
速度 7.69 km/s
衛星直下点 -4.06°S, 78.27°E
打ち上げ日 Sep 20, 2024
運用期間 1.7 years
タイプ internet

技術仕様

分類 Payload
質量 960.00 kg
乾燥質量 910.00 kg
総質量 960.00 kg
長さ 0.30 m
直径 4.10 m
スパン 29.00 m
形状 Box + pan
製造者 SPXS
バスタイプ Starlink V2MD
フェーズステータス In Orbit
所有者/国 SPXS/US

Most Searched